CAPE
4 0 0 100 0 0 0 0 0 0 0 0 0 0 0 6 10 20 82 15 9 10 0 0 75 176 182 111 12 2 0 0 0 0 0 0 0 0 0 0 0 0 0
167 57 18 5 0 0 0 0 0 0 0 0 0 0 0 0 0 0 2 27 16 8 13 14 11 43 202 308 238 103 32 15 17 5 0 0 0 0 0 0 0 0 0
227 320 54 0 0 0 0 0 0 0 0 0 0 0 0 0 0 0 0 0 0 0 0 11 7 15 28 119 256 246 163 96 39 22 13 0 0 0 0 0 0 0 0
184 328 236 53 1 0 1 0 0 0 0 0 0 0 0 0 0 0 0 0 0 0 0 0 0 7 10 18 56 149 220 189 156 108 52 29 19 10 2 0 0 0 0
334 291 353 105 148 0 0 0 0 0 0 0 0 0 0 0 0 0 0 0 0 0 0 0 0 0 0 2 2 10 31 86 127 121 60 19 11 11 7 2 0 0 0
196 193 286 397 134 74 0 0 0 0 0 0 0 0 0 0 0 0 0 0 0 0 0 0 0 0 0 0 0 0 0 2 18 33 35 23 13 3 0 0 0 0 0
445 277 177 232 321 178 55 0 0 0 0 0 0 0 0 0 0 0 0 0 0 0 0 0 11 10 0 0 0 0 0 0 9 15 7 14 16 12 3 0 0 0 0
570 504 372 238 209 200 152 18 0 0 0 0 0 0 0 0 0 0 0 0 0 0 0 0 1 0 0 0 1 0 0 0 3 38 46 28 9 6 3 1 1 0 0
271 288 676 484 279 199 165 73 15 0 0 0 0 0 0 0 0 0 0 0 0 0 0 2 10 58 65 49 122 149 65 0 0 18 66 66 35 13 4 9 18 9 0
50 235 240 705 557 289 212 172 87 35 0 0 0 0 0 0 0 3 0 78 0 18 159 350 237 153 134 206 266 283 299 109 0 0 15 67 66 41 23 5 1 0 0
0 0 0 82 651 564 458 233 173 128 79 19 0 0 0 0 0 0 0 0 0 236 498 282 137 142 276 302 299 286 255 44 8 0 0 2 17 11 0 0 0 0 0
0 0 0 0 0 285 623 634 305 259 151 125 72 6 0 0 0 0 0 0 0 0 0 192 294 338 204 103 287 411 425 310 124 19 0 0 0 0 0 0 0 0 0
0 0 0 0 1 2 10 667 680 439 324 138 161 109 60 0 0 39 28 3 0 1 20 0 0 178 537 536 529 437 441 323 161 89 43 6 0 0 0 0 0 0 0
0 0 0 0 0 0 4 0 477 674 612 412 232 204 119 66 4 0 1 6 0 0 4 58 330 501 692 877 867 758 612 425 259 121 65 8 0 0 0 0 0 0 0
0 0 0 0 0 0 0 3 7 28 567 585 499 396 204 181 77 31 1 0 0 0 0 0 0 75 291 432 541 553 570 531 392 276 103 0 0 0 0 0 0 0 0
0 0 0 0 0 0 0 0 0 1 4 266 529 517 446 289 219 135 2 0 0 0 0 0 2 345 883 1036 1076 968 828 635 597 440 215 75 11 0 0 0 0 0 0
0 0 0 0 0 0 0 1 0 0 0 1 1 8 344 429 347 194 85 1 1 0 0 0 0 273 564 692 844 977 930 797 669 423 304 112 0 0 0 0 0 0 0
0 0 0 0 0 0 0 0 0 0 0 0 0 2 0 111 361 315 297 166 46 26 38 60 211 536 699 795 970 955 905 851 786 523 257 97 30 1 0 0 0 0 0
0 0 0 0 0 0 0 0 0 0 0 0 0 0 0 5 2 16 274 386 312 195 215 279 343 589 654 613 603 641 772 733 547 328 84 31 24 12 0 0 0 0 0
0 0 0 0 1 0 0 0 0 0 0 0 0 0 0 0 4 6 1 2 169 289 582 604 657 580 484 405 316 277 315 373 277 106 41 5 1 0 0 0 0 0 0
0 0 0 0 0 0 2 0 1 1 0 0 0 0 0 0 0 25 0 0 0 35 575 639 457 342 239 125 95 180 200 239 83 35 12 18 29 0 0 0 0 0 0
0 0 2 2 1 3 1 0 0 0 2 0 1 0 0 0 0 0 8 0 0 3 56 267 13 4 43 24 102 182 74 94 46 0 7 0 7 21 0 0 0 0 0
0 1 0 3 5 1 2 0 0 0 1 3 0 0 0 0 0 0 0 0 0 0 0 0 24 69 3 3 5 99 37 52 37 8 0 0 0 0 0 0 0 0 0
0 0 2 4 2 1 1 0 0 0 0 1 2 3 0 0 0 0 0 0 0 0 0 1 0 0 1 5 40 99 53 16 0 0 0 0 0 0 0 0 0 0 0
0 0 1 2 1 0 0 0 0 0 2 1 1 4 3 3 1 0 0 0 0 0 0 0 0 0 0 0 0 0 0 0 0 0 0 0 0 0 0 0 0 0 0
1 1 0 1 0 1 1 1 2 1 2 2 0 0 0 0 1 1 0 0 0 0 0 0 0 0 0 0 0 0 0 0 0 0 0 0 0 0 0 0 0 0 3
CIN
-53 -0 -0 -80 -0 -0 -0 -0 -0 -0 -0 -0 -0 -0 -0 -124 -188 -130 -85 -216 -218 -190 -0 -0 -165 -150 -154 -177 -259 -142 -41 -0 -0 -0 -0 -0 -0 -0 -0 -0 -0 -0 -0
-70 -76 -101 -17 -1 -0 -0 -0 -0 -0 -0 -0 -0 -0 -0 -0 -0 -0 -57 -156 -197 -223 -212 -193 -226 -198 -158 -151 -172 -219 -335 -409 -420 -283 -0 -0 -0 -0 -0 -0 -0 -0 -0
-63 -40 -90 -0 -0 -0 -0 -0 -0 -0 -0 -0 -0 -0 -0 -0 -0 -0 -0 -0 -0 -0 -0 -274 -260 -262 -243 -194 -175 -184 -218 -268 -361 -371 -371 -0 -0 -0 -0 -0 -0 -0 -0
-86 -34 -49 -108 -4 -0 -1 -0 -0 -0 -0 -0 -0 -0 -0 -0 -0 -0 -0 -0 -0 -0 -0 -0 -0 -281 -305 -293 -247 -216 -212 -223 -249 -294 -328 -361 -377 -394 -423 -73 -0 -0 -0
-58 -75 -41 -92 -61 -0 -0 -0 -0 -0 -0 -0 -0 -0 -0 -0 -0 -0 -0 -0 -0 -0 -0 -0 -0 -0 -0 -208 -201 -179 -326 -297 -287 -293 -347 -402 -434 -441 -448 -464 -0 -0 -0
-114 -93 -54 -41 -84 -93 -0 -0 -0 -0 -0 -0 -0 -0 -0 -0 -0 -0 -0 -0 -0 -0 -0 -0 -0 -0 -0 -0 -0 -0 -0 -115 -402 -400 -406 -435 -453 -475 -136 -0 -0 -0 -0
-24 -83 -140 -90 -52 -82 -127 -0 -0 -0 -0 -0 -0 -0 -0 -0 -0 -0 -0 -0 -0 -0 -0 -1 -343 -377 -0 -0 -0 -0 -0 -0 -404 -401 -439 -422 -427 -449 -477 -0 -0 -0 -0
-11 -7 -63 -108 -88 -60 -85 -80 -0 -0 -0 -0 -0 -0 -0 -0 -0 -0 -0 -0 -0 -0 -0 -0 -107 -0 -0 -0 -128 -0 -0 -0 -72 -345 -359 -375 -421 -437 -449 -162 -117 -0 -0
-48 -34 -6 -33 -85 -48 -73 -163 -194 -0 -0 -0 -0 -0 -0 -0 -0 -0 -0 -0 -0 -0 -0 -210 -367 -254 -282 -332 -252 -269 -311 -0 -0 -349 -336 -350 -373 -408 -433 -409 -377 -396 -0
-17 -47 -47 -9 -20 -58 -60 -77 -139 -170 -0 -0 -0 -0 -0 -0 -0 -21 -0 -67 -0 -267 -188 -137 -140 -167 -192 -173 -160 -170 -185 -265 -0 -0 -411 -354 -361 -388 -407 -413 -78 -0 -0
-0 -0 -0 -39 -7 -11 -22 -57 -64 -90 -130 -193 -0 -0 -0 -0 -0 -0 -0 -0 -0 -99 -69 -112 -164 -184 -128 -133 -158 -192 -185 -269 -354 -0 -0 -466 -435 -451 -0 -0 -0 -0 -0
-0 -0 -0 -0 -0 -144 -19 -19 -58 -39 -80 -110 -167 -85 -0 -0 -0 -0 -0 -0 -0 -0 -0 -153 -140 -180 -222 -223 -171 -179 -180 -201 -279 -382 -0 -159 -0 -0 -0 -0 -0 -0 -0
-0 -0 -0 -0 -0 -0 -36 -5 -15 -21 -18 -96 -124 -183 -218 -0 -0 -228 -184 -173 -0 -104 -266 -0 -0 -195 -131 -158 -170 -193 -175 -182 -237 -297 -354 -467 -0 -0 -0 -0 -0 -0 -0
-0 -0 -0 -0 -0 -0 -0 -0 -15 -10 -5 -6 -50 -83 -174 -218 -283 -0 -40 -300 -0 -0 -37 -281 -118 -110 -80 -61 -71 -90 -136 -172 -189 -224 -299 -458 -0 -0 -0 -0 -0 -0 -0
-0 -0 -0 -0 -0 -0 -0 -0 -0 -293 -2 -5 -4 -13 -72 -114 -190 -212 -15 -0 -0 -0 -0 -0 -0 -266 -158 -87 -62 -87 -118 -145 -167 -198 -246 -0 -0 -0 -0 -0 -0 -0 -0
-0 -0 -0 -0 -0 -0 -0 -0 -0 -0 -0 -71 -2 -3 -10 -55 -87 -149 -49 -0 -0 -0 -0 -0 -47 -151 -72 -31 -22 -42 -72 -97 -121 -177 -220 -273 -281 -0 -0 -0 -0 -0 -0
-0 -0 -0 -0 -0 -0 -0 -0 -0 -0 -0 -0 -0 -1 -2 -5 -11 -45 -85 -4 -1 -0 -0 -0 -30 -165 -85 -93 -70 -33 -33 -52 -76 -166 -215 -242 -0 -0 -0 -0 -0 -0 -0
-0 -0 -0 -0 -0 -0 -0 -0 -0 -0 -0 -0 -0 -0 -0 -161 -1 -1 -2 -48 -155 -138 -98 -72 -76 -61 -66 -84 -56 -29 -19 -29 -41 -99 -190 -253 -336 -165 -0 -0 -0 -0 -0
-0 -0 -0 -0 -0 -0 -0 -0 -0 -0 -0 -0 -0 -0 -0 -0 -0 -14 -1 -3 -6 -80 -64 -32 -23 -12 -17 -26 -25 -29 -20 -20 -46 -70 -186 -295 -361 -471 -66 -0 -0 -0 -0
-0 -0 -0 -0 -0 -0 -0 -0 -0 -0 -0 -0 -0 -0 -0 -0 -0 -0 -0 -0 -7 -2 -15 -1 -1 -7 -21 -35 -27 -43 -83 -91 -121 -185 -240 -132 -131 -0 -0 -0 -0 -0 -0
-0 -0 -0 -1 -0 -0 -0 -0 -0 -0 -0 -0 -0 -0 -0 -0 -0 -3 -0 -0 -0 -3 -0 -0 -9 -19 -14 -32 -31 -48 -62 -96 -216 -315 -321 -441 -395 -0 -0 -0 -0 -0 -0
-0 -0 -0 -0 -1 -0 -0 -3 -0 -0 -0 -0 -0 -0 -0 -0 -0 -0 -8 -0 -0 -0 -0 -5 -85 -30 -1 -5 -6 -10 -55 -60 -215 -0 -237 -0 -403 -405 -0 -0 -0 -0 -0
-0 -0 -0 -0 -0 -0 -0 -0 -0 -0 -0 -0 -0 -0 -0 -0 -0 -0 -0 -0 -0 -0 -0 -0 -2 -0 -0 -44 -8 -0 -26 -41 -95 -95 -0 -0 -0 -0 -0 -0 -0 -0 -0
-0 -0 -0 -0 -0 -0 -1 -0 -0 -0 -0 -0 -0 -0 -0 -0 -0 -0 -0 -0 -0 -0 -0 -2 -0 -0 -0 -7 -8 -17 -15 -14 -0 -0 -0 -0 -0 -0 -0 -0 -0 -0 -0
-0 -0 -0 -0 -0 -0 -1 -3 -2 -3 -0 -1 -0 -0 -1 -0 -1 -0 -0 -0 -0 -0 -0 -0 -0 -0 -0 -0 -0 -0 -0 -0 -0 -0 -0 -0 -0 -0 -0 -0 -0 -0 -0
-0 -2 -2 -4 -2 -0 -0 -2 -1 -1 -0 -0 -0 -0 -0 -0 -3 -4 -0 -0 -0 -0 -0 -0 -0 -0 -0 -0 -0 -0 -0 -0 -0 -0 -0 -0 -0 -0 -0 -0 -0 -0 -0
Wind_Speed
8 4 5 2 2 5 6 9 8 10 14 19 24 27 29 30 31 31 19 3 4 3 3 8 13 15 15 15 15 14 13 12 10 10 9 8 7 7 7 6 6 5 4
3 4 5 11 3 3 3 5 5 7 6 7 11 14 11 18 8 21 32 12 5 7 9 9 11 14 15 15 14 14 13 12 10 9 8 7 7 7 7 7 7 6 6
13 7 5 6 13 8 5 6 6 9 6 8 7 10 8 10 11 25 34 36 35 18 16 15 12 12 13 14 14 14 14 13 11 9 8 8 8 7 7 8 7 7 7
8 13 15 10 11 13 15 10 12 10 15 13 20 11 11 9 9 12 22 36 38 37 16 20 17 15 14 14 14 14 14 14 13 12 11 9 8 8 8 8 8 8 8
10 9 20 18 23 14 13 15 12 15 16 16 16 23 19 16 16 13 11 11 23 23 30 28 17 18 16 16 16 15 15 14 14 13 12 11 10 9 9 9 8 8 8
13 14 18 28 19 25 20 21 20 16 19 22 24 21 19 16 19 25 34 32 25 13 13 15 13 11 17 18 18 17 15 14 13 13 13 12 12 11 11 10 10 10 10
17 17 19 21 27 23 26 23 26 25 23 21 25 34 38 33 27 24 30 36 40 42 32 19 14 13 14 14 16 17 16 14 13 13 13 14 14 14 13 13 12 11 11
32 24 23 25 26 31 30 29 28 27 29 25 27 29 37 40 39 34 35 38 31 34 37 29 18 15 14 14 11 12 12 13 13 13 13 14 15 15 15 15 14 13 12
30 35 34 29 29 31 33 32 31 30 31 31 24 28 30 33 34 29 25 23 22 24 24 28 29 27 19 17 17 18 16 16 15 15 15 15 16 16 16 16 15 14 13
37 34 37 37 34 32 35 36 35 34 34 34 32 26 32 35 33 36 30 29 24 24 24 24 26 24 25 24 22 20 21 21 19 18 19 19 19 19 18 17 17 16 15
37 37 36 44 39 38 36 38 38 36 36 37 35 35 33 38 42 45 47 44 38 31 27 28 27 25 23 24 21 22 22 21 21 22 22 21 21 21 21 19 18 17 16
40 41 43 42 43 45 39 39 39 40 38 37 38 38 39 38 38 38 44 45 43 43 38 34 30 27 26 25 23 21 22 24 24 23 22 22 21 21 21 21 19 19 18
41 42 42 41 44 45 46 44 40 41 42 41 40 40 39 40 40 38 40 44 45 40 37 33 32 30 28 25 24 22 21 21 22 22 23 24 24 24 23 22 22 22 20
41 43 44 43 45 43 44 46 49 43 43 45 45 44 43 42 41 41 43 42 46 45 42 38 31 28 26 24 24 24 24 22 23 24 25 26 26 26 26 25 24 23 21
41 42 43 46 47 46 45 46 46 49 48 46 46 47 49 47 45 44 44 44 46 52 51 42 39 32 30 28 27 27 25 24 24 25 27 29 29 29 28 28 26 24 22
44 44 44 44 46 46 45 47 45 47 46 49 50 50 49 49 49 48 48 47 46 50 55 44 40 34 28 26 26 25 25 26 26 26 27 28 30 31 31 30 29 26 23
45 46 46 46 47 47 46 46 45 46 45 46 47 50 56 53 52 52 51 51 52 50 55 50 42 37 35 33 31 28 27 28 28 28 29 29 31 32 32 31 30 28 23
45 43 46 48 47 49 48 48 48 50 46 50 52 52 54 53 53 57 57 54 52 50 53 55 46 40 37 34 32 32 31 30 28 28 28 31 32 35 36 35 30 27 26
44 44 46 46 48 49 50 50 51 53 50 54 54 59 56 52 55 54 61 61 53 51 50 52 51 41 37 34 35 33 32 30 30 30 31 31 34 36 38 37 32 30 28
46 46 45 47 46 48 49 48 50 52 51 52 55 55 55 57 59 58 62 53 57 57 52 49 45 40 39 37 34 35 35 31 32 30 30 33 35 38 40 38 32 27 26
47 47 46 45 47 44 47 49 51 54 56 55 57 55 53 54 57 57 57 61 63 66 54 47 44 43 36 31 34 34 34 35 37 34 33 34 31 33 36 35 30 29 28
47 47 47 47 48 44 45 45 50 54 56 54 58 56 55 53 53 57 50 49 51 53 58 49 41 37 26 28 33 34 36 35 45 33 40 39 26 29 33 30 30 30 29
49 49 49 48 47 47 46 49 51 50 52 52 52 55 53 52 48 45 50 48 51 53 52 43 48 51 49 45 41 45 34 30 38 30 27 33 25 29 22 23 30 32 31
52 52 51 49 49 48 49 50 50 48 48 49 49 50 54 52 49 48 50 47 45 44 44 43 41 46 48 39 33 32 29 28 28 23 22 33 29 33 28 31 31 30 31
50 50 50 50 49 48 49 49 49 49 48 47 46 47 48 49 50 51 51 51 49 43 40 37 36 36 40 35 35 31 24 28 32 31 26 30 32 33 31 34 37 34 33
45 45 46 46 46 47 47 48 48 48 49 48 47 47 47 48 49 49 52 53 55 50 50 46 44 35 31 34 37 30 27 29 30 32 25 26 28 28 33 30 32 29 30
Wind_Direction
161 148 158 150 140 162 170 173 175 180 186 195 208 216 229 259 251 250 300 32 10 18 126 170 188 198 203 205 206 207 208 209 209 211 214 217 220 225 229 235 244 256 272
206 286 290 294 267 210 229 200 209 198 209 204 200 202 229 215 277 212 235 306 199 193 190 190 197 203 208 210 212 214 215 217 218 221 225 229 232 237 244 247 249 259 277
192 287 269 263 292 288 245 244 225 285 257 279 262 288 229 217 215 216 240 244 263 210 208 209 212 212 215 216 218 220 222 223 225 229 234 238 238 242 247 249 256 270 282
217 287 290 282 282 287 293 277 289 278 289 285 292 283 282 267 245 222 216 237 249 260 227 220 220 222 223 222 222 224 225 226 228 230 234 239 243 249 252 254 261 269 284
271 256 287 284 286 279 274 286 271 282 286 287 286 289 289 287 286 279 258 252 219 220 237 282 224 225 227 228 228 228 229 231 233 235 239 245 251 256 258 262 270 277 291
269 273 282 282 280 283 280 280 283 278 282 285 288 288 286 280 285 286 279 281 286 250 244 233 286 255 231 230 231 231 234 236 242 246 248 250 255 259 262 267 274 279 286
279 271 276 280 281 279 280 279 279 279 281 283 284 283 279 284 286 283 284 279 274 270 285 288 280 283 291 239 233 234 238 244 251 257 258 257 257 260 263 269 273 278 284
285 283 277 278 279 279 278 277 277 278 279 277 282 283 281 280 279 282 280 278 237 283 280 288 282 274 273 288 281 257 256 261 264 268 272 272 269 268 267 269 272 279 283
281 283 281 277 277 278 277 275 274 272 276 277 271 277 284 282 286 287 282 280 280 284 285 289 289 290 289 284 291 299 296 295 288 281 280 281 284 283 278 275 276 277 285
298 281 280 277 275 274 276 276 274 272 272 274 276 267 272 280 284 284 287 288 283 282 285 289 293 293 292 291 292 295 300 302 301 299 297 294 295 295 292 285 282 282 288
300 299 301 283 274 273 275 274 274 272 270 270 271 274 273 274 274 275 277 277 282 285 282 286 287 288 290 293 290 294 296 297 298 301 301 300 298 298 298 295 288 286 288
299 300 296 293 289 279 271 273 271 272 270 269 270 270 270 273 273 275 276 277 280 280 280 281 283 282 284 285 286 290 297 301 302 303 305 305 302 300 299 297 293 290 290
299 299 299 299 292 290 287 273 271 271 271 269 268 269 270 270 272 273 274 277 278 280 281 279 281 281 280 279 280 281 287 295 300 303 307 308 308 305 301 296 293 291 290
300 300 296 297 295 296 291 288 274 271 271 270 269 269 269 270 270 270 273 276 278 279 278 278 280 278 280 279 278 278 284 288 295 301 306 309 310 309 306 300 294 291 288
305 303 301 295 295 293 293 293 284 284 273 272 271 270 268 270 270 271 270 270 273 276 276 277 276 273 274 274 274 275 277 283 288 297 305 307 309 310 309 305 300 293 287
305 302 301 301 298 294 295 291 292 289 288 278 274 272 270 269 269 269 269 269 267 270 274 274 273 275 270 273 281 279 277 280 285 291 301 306 307 307 307 307 304 296 286
315 305 302 298 296 297 295 291 293 293 289 291 288 282 274 271 269 268 267 267 267 268 269 272 270 269 268 270 276 281 282 285 288 289 295 302 306 308 307 305 303 299 290
321 319 308 301 298 295 295 292 288 285 291 289 286 290 282 283 274 271 267 265 264 267 269 271 271 266 264 270 273 277 284 288 289 291 294 298 303 305 306 304 300 296 295
324 323 319 308 301 297 295 293 293 294 292 290 291 285 285 288 289 293 264 265 267 265 265 268 269 269 268 271 275 279 281 285 290 291 293 298 301 303 303 300 299 295 294
325 322 319 313 306 303 295 293 294 295 294 294 292 289 290 284 291 294 286 298 280 257 260 262 264 264 270 272 273 274 277 284 288 291 294 297 302 302 296 297 299 297 291
330 327 321 317 312 313 303 298 297 293 292 290 291 293 293 294 294 297 295 290 291 281 255 259 258 263 263 266 272 278 278 283 287 290 295 301 303 300 297 299 299 299 297
333 330 326 321 314 313 311 309 300 298 292 291 289 293 294 294 294 296 299 300 293 301 292 258 260 253 256 274 278 279 278 286 291 293 293 293 291 294 298 302 302 300 299
334 330 326 324 318 315 310 308 307 307 294 290 289 289 290 293 294 296 297 298 298 288 291 289 275 267 287 286 286 276 283 287 288 298 298 291 289 295 297 301 299 299 299
335 330 327 324 319 314 312 308 305 304 303 299 296 289 287 289 292 295 295 298 299 297 295 294 297 297 299 288 283 270 284 294 299 297 301 293 294 292 296 296 296 298 297
339 335 330 326 322 317 313 311 308 305 303 302 302 296 292 290 292 292 291 288 294 296 294 304 308 313 311 305 289 271 282 292 291 291 294 295 295 296 297 297 295 295 294
344 341 336 332 327 321 315 312 312 310 305 303 304 302 299 294 294 293 289 287 287 293 298 301 301 304 306 300 289 293 303 293 292 294 298 296 299 302 301 301 300 304 305